Back to catalog

STARLINK-2373

AliveCommunicationsVLEO
NORAD 47796·PAYLOAD·🇺🇸 United States

Launched Mar 11, 2021 from Cape Canaveral Space Force Station

Loading…

Next Passes (next 24 hours)

TLE

FreshSource: CelesTrak SupGP

Epoch: Sep 14, 2026, 14:09 UTC

1 47796C 21018K   26257.59006944  .00029482  00000+0  67992-3 0  2571
2 47796  53.1532  75.4601 0002004 134.0029 198.7426 15.41975912    14

Track STARLINK-2373 in real time with AllMySat

Download on the App Store